Location: ????????
(60.5616°N, 46.8254°E)
Time: 10:55:07
(UTC+00:00)

ATLAS 3B R/B - Pass Details

Date: 18 February 2020
Orbit: 1029 x 1166 km, 63.8° (Epoch: 12 March)

Event Time Altitude Azimuth Distance (km) Brightness Sun altitude
Rises 19:10:42 0° 300° (WNW) 3,792 6.4 -36.6°
Reaches altitude 10° 19:13:18 10° 299° (WNW) 2,844 5.5 -36.8°
Enters shadow 19:17:38 43° 288° (WNW) 1,435 3.5 -37.1°
